West Palm Beach, FL

8:19 AM EDT on September 26, 2017 (GMT -0400)
Palm Beach International

Weather History for KPBI - July, 2013

Change the Weather History Date:

Monday, July 15, 2013

  Actual Average Record
Temperature  
Mean Temperature 81 °F 83 °F  
Max Temperature 87 °F 90 °F 97 °F (1981)
Min Temperature 75 °F 76 °F 67 °F (1904)
Degree Days  
Heating Degree Days 0 0  
Month to date heating degree days 0 0  
Since 1 June heating degree days 0 0  
Since 1 July heating degree days 0 0  
Cooling Degree Days 16 18  
Month to date cooling degree days 276 259  
Year to date cooling degree days 1950 1858  
Since 1 June cooling degree days 765 749  
Growing Degree Days 31 (Base 50)    
Moisture  
Dew Point 70 °F    
Average Humidity 72    
Maximum Humidity 87    
Minimum Humidity 57    
Precipitation  
Precipitation 0.06 in 0.17 in 2.10 in (1954)
Month to date precipitation 3.97 2.99  
Year to date precipitation 41.65 30.00  
Snow  
Snow 0.00 in - - ()
Month to date snowfall 0.0  
Since 1 June snowfall 0.0  
Since 1 July snowfall 0.0  
Snow Depth 0.00 in    
Sea Level Pressure  
Sea Level Pressure 30.06 in    
Wind  
Wind Speed 7 mph (ENE)    
Max Wind Speed 22 mph    
Max Gust Speed 24 mph    
Visibility 10 miles    
Events Rain    
T = Trace of Precipitation, MM = Missing Value Source: NWS Daily Summary

Daily Weather History Graph

Daily Weather History Graph

Search for Another Location

Airport or City:

Trip Planner

Search our weather history database for the weather conditions in past years. The results will help you decide how hot, cold, wet, or windy it might be!

Date:

Astronomy

Jul. 15, 2013 Rise Set
Actual Time 6:36 AM EDT 8:15 PM EDT
Civil Twilight 6:10 AM EDT 8:41 PM EDT
Nautical Twilight 5:40 AM EDT 9:12 PM EDT
Astronomical Twilight 5:07 AM EDT 9:44 PM EDT
Moon 1:08 PM EDT (7/15) 12:09 AM EDT (7/15)
Length of Visible Light 14h 30m
Length of Day
13h 39m
Waxing Crescent, 45% of the Moon is Illuminated
Jul 15
Waxing Crescent
Jul 15
First Quarter
Jul 22
Full
Jul 29
Last Quarter
Aug 6
New

Hourly Weather History & Observations

Time (EDT) Temp. Heat Index Dew Point Humidity Pressure Visibility Wind Dir Wind Speed Gust Speed Precip Events Conditions
12:10 AM 75.2 °F - 69.8 °F 83% 30.10 in 10.0 mi East 9.2 mph - 0.00 in Rain Light Rain
12:53 AM 75.9 °F - 70.0 °F 82% 30.09 in 10.0 mi East 4.6 mph - 0.03 in Rain Light Rain
1:53 AM 75.9 °F - 70.0 °F 82% 30.08 in 10.0 mi NE 3.5 mph - 0.05 in Rain Light Rain
2:53 AM 77.0 °F - 71.1 °F 82% 30.06 in 10.0 mi Calm Calm - 0.00 in   Overcast
3:53 AM 75.9 °F - 71.1 °F 85% 30.05 in 10.0 mi Calm Calm - N/A   Mostly Cloudy
4:53 AM 75.0 °F - 70.0 °F 84% 30.04 in 10.0 mi NW 3.5 mph - N/A   Scattered Clouds
5:53 AM 75.9 °F - 70.0 °F 82% 30.04 in 10.0 mi SW 5.8 mph - N/A   Mostly Cloudy
6:53 AM 75.9 °F - 71.1 °F 85% 30.05 in 10.0 mi NW 4.6 mph - N/A   Mostly Cloudy
7:53 AM 79.0 °F - 72.0 °F 79% 30.07 in 10.0 mi NNW 4.6 mph - N/A   Mostly Cloudy
8:53 AM 82.9 °F 89.4 °F 73.9 °F 74% 30.08 in 10.0 mi Calm Calm - N/A   Mostly Cloudy
9:53 AM 86.0 °F 90.1 °F 69.1 °F 57% 30.07 in 10.0 mi East 8.1 mph - N/A   Mostly Cloudy
10:53 AM 87.1 °F 92.8 °F 71.1 °F 59% 30.08 in 10.0 mi East 6.9 mph - N/A   Mostly Cloudy
11:53 AM 86.0 °F 90.7 °F 70.0 °F 59% 30.08 in 10.0 mi East 8.1 mph - N/A   Mostly Cloudy
12:53 PM 84.9 °F 89.4 °F 70.0 °F 61% 30.08 in 10.0 mi NE 10.4 mph - N/A   Mostly Cloudy
1:53 PM 86.0 °F 90.7 °F 70.0 °F 59% 30.06 in 10.0 mi ENE 5.8 mph - N/A   Mostly Cloudy
2:53 PM 84.9 °F 88.8 °F 69.1 °F 59% 30.04 in 10.0 mi NE 9.2 mph - N/A   Mostly Cloudy
3:53 PM 84.9 °F 89.4 °F 70.0 °F 61% 30.04 in 10.0 mi East 10.4 mph - N/A   Mostly Cloudy
4:53 PM 81.0 °F 83.8 °F 68.0 °F 65% 30.04 in 10.0 mi East 10.4 mph - 0.00 in Rain Light Rain
5:53 PM 82.9 °F 85.8 °F 68.0 °F 60% 30.02 in 10.0 mi East 9.2 mph - 0.00 in   Mostly Cloudy
6:53 PM 82.0 °F 84.9 °F 68.0 °F 62% 30.04 in 10.0 mi ENE 6.9 mph - N/A   Mostly Cloudy
7:53 PM 79.0 °F - 71.1 °F 77% 30.05 in 7.0 mi East 12.7 mph 23.0 mph 0.01 in Rain Light Rain
8:53 PM 79.0 °F - 72.0 °F 79% 30.06 in 10.0 mi ENE 3.5 mph - 0.00 in   Mostly Cloudy
9:53 PM 81.0 °F 84.4 °F 70.0 °F 69% 30.08 in 10.0 mi East 12.7 mph - N/A   Scattered Clouds
10:53 PM 81.0 °F 84.4 °F 70.0 °F 69% 30.09 in 10.0 mi East 15.0 mph - N/A   Scattered Clouds
11:53 PM 82.0 °F 85.9 °F 70.0 °F 67% 30.10 in 10.0 mi East 16.1 mph - N/A   Mostly Cloudy